Location: N�rnberg
(49.4471°N, 11.0632°E)
Time: 18:10:14
(UTC+01:00)

ARIANE 6 FM1 Upper Stage - Pass Details

Date: 14 February 2026
Orbit: 523 x 607 km, 62.0° (Epoch: 8 March)

Event Time Altitude Azimuth Distance (km) Brightness Sun altitude
Rises 18:36:43 0° 317° (NW) 2,665 6.7 -10.8°
Reaches altitude 10° 18:39:06 10° 328° (NNW) 1,770 5.5 -11.2°
Maximum altitude 18:42:39 31° 31° (NNE) 949 3.5 -11.8°
Enters shadow 18:44:46 19° 81° (E) 1,301 3.9 -12.1°
